Location: Liscomb Game Sanctuary
(45.1633°N, 62.5575°W)
Time: 05:58:49
(UTC-03:00)

Daily predictions for brighter satellites

Satellite Brightness Start Highest point End
(mag) Time Altitude Azimuth Time Altitude Azimuth Time Altitude Azimuth
SL-08 ROCKET BODY 4.4 00:02:42 10° N 00:08:56 85° W 00:11:44 35° S
H-2A R/B 4.5 00:06:05 26° S 00:10:36 34° SE 01:05:28 10° E
Cosmos 1441 Rocket 4.3 00:08:32 10° N 00:12:00 31° ENE 00:12:35 30° E
RESURS DK-1 3.6 00:16:17 28° E 00:16:17 28° E 00:19:30 10° NE
Meteor 1-27 4.4 00:10:13 10° N 00:16:03 70° ENE 00:18:24 37° SSE
Cosmos 405 Rocket 3.9 00:14:52 10° NNE 00:18:06 28° ENE 00:18:37 27° E
Lacrosse 5 3.2 00:14:30 10° W 00:19:16 40° NNW 00:24:04 10° NE
NOSS 3-4 (A) 3.4 00:17:17 28° SSW 00:20:47 78° SE 00:27:15 10° NE
NOSS 3-4 (C) 3.4 00:17:25 28° SSW 00:20:53 77° SE 00:27:21 10° NE
Mayak -1.1 00:17:13 10° NNE 00:21:18 53° E 00:21:47 50° SE
NOSS 2-2 (E) 3.3 00:21:46 59° SE 00:22:00 60° ESE 00:26:24 10° NE
Cosmos 1703 3.1 00:24:22 68° SSE 00:24:47 80° E 00:28:42 10° N
CZ-4 R/B 3.7 00:20:35 10° NNE 00:25:27 90° ENE 00:26:56 45° SSW
SL-19 R/B 4.1 00:23:29 10° NNE 00:29:06 85° ESE 00:31:07 40° S
Cosmos 2369 Rocket 4.4 00:29:12 10° ESE 00:30:09 11° E 00:31:24 10° E
Cosmos 2297 3.8 00:33:06 42° SSE 00:34:44 58° ESE 00:40:21 10° NNE
CENTAUR R/B 3.2 00:27:56 10° NW 00:35:51 79° NE 00:41:34 24° SE
Cosmos 2151 3.3 00:35:32 46° ESE 00:36:02 49° E 00:40:10 10° NNE
Cosmos 1743 Rocket 4.1 00:37:25 40° ESE 00:38:00 42° E 00:42:09 10° NNE
Cosmos 1328 Rocket 3.5 00:33:41 10° N 00:38:02 72° E 00:38:48 56° SE
Cosmos 2221 4.3 00:35:31 10° NW 00:38:53 22° W 00:40:14 19° WSW
USA 234 3.5 00:35:27 10° ENE 00:41:46 48° SE 00:43:54 37° S
Cosmos 2082 Rocket 2.1 00:36:53 10° NNW 00:42:39 81° WSW 00:44:35 43° SSE
ADEOS Rocket 2.9 00:37:25 10° NNE 00:43:14 77° ESE 00:45:44 39° S
Nadezhda 1 Rocket 4.2 00:41:23 37° SSE 00:43:51 62° E 00:50:11 10° NNE
Meteor 2-10 Rocket 3.9 00:41:20 10° N 00:46:18 52° ENE 00:48:03 36° SE
NOSS 2-2 (D) 3.3 00:50:58 61° SW 00:51:39 85° NW 00:56:09 10° NE
SL-27 R/B 2.7 00:48:19 10° NNW 00:51:49 63° W 00:51:49 63° W
CZ-4C R/B 3.3 00:52:21 66° SSW 00:52:46 75° WSW 00:56:43 10° NNW
ATLAS 5 CENTAUR R/B 1.6 00:51:38 50° SW 00:52:51 88° SE 00:57:51 10° NE
Cosmos 1833 Rocket 2.8 00:48:45 10° NNW 00:54:16 58° WSW 00:55:49 43° SSW
Cosmos 1241 Rocket 4.4 00:53:25 40° S 00:55:39 68° ESE 01:01:52 10° NE
ALOS 2 2.9 00:59:35 47° SW 01:00:15 52° W 01:04:34 10° NNW
Meteor 2-21 Rocket 4.4 00:54:34 10° N 01:00:39 74° E 01:03:00 39° SSE
Cosmos 2074 Rocket 4.2 00:57:10 10° NNW 01:03:21 64° W 01:05:46 38° SSW
Cosmos 2058 3.0 01:02:52 56° SW 01:03:30 65° W 01:07:38 10° N
Cosmos 1500 Rocket 3.5 01:04:06 58° SE 01:04:42 66° E 01:09:01 10° NNE
ATLAS 3B R/B 4.1 01:08:56 10° WNW 01:13:28 20° WSW 01:14:51 19° SW
Cosmos 371 Rocket 3.6 01:08:58 10° NNW 01:13:47 61° ENE 01:15:25 39° SE
SL-8 R/B 4.0 01:11:30 10° W 01:16:18 66° NNW 01:21:08 10° ENE
Cosmos 1455 3.8 01:14:19 10° NW 01:17:22 24° W 01:17:31 24° W
NOSS 2-2 (C) 4.1 01:16:04 32° WSW 01:17:34 50° NW 01:22:02 10° NNE
Cosmos 1943 Rocket 3.6 01:23:19 21° ESE 01:24:41 23° ESE 01:28:58 10° NE
SL-24 R/B 4.1 01:23:17 10° NNE 01:27:38 83° ESE 01:28:40 54° S
Cosmos 1515 Rocket 4.0 01:26:06 10° NNW 01:30:19 46° W 01:30:56 43° WSW
Cosmos 1151 Rocket 3.7 01:32:03 10° NNW 01:36:03 38° W 01:36:31 37° WSW
Cosmos 1892 3.7 01:35:55 33° ESE 01:36:15 33° E 01:39:40 10° NNE
H-2A R/B 3.0 01:37:18 31° WSW 01:37:27 31° W 01:41:09 10° NNW
CZ-4B R/B 4.3 01:33:05 10° N 01:38:07 45° WNW 01:40:21 28° WSW
Cosmos 2278 Rocket 4.3 01:36:49 10° W 01:41:08 22° NW 01:45:30 10° N
Cosmos 332 Rocket 3.8 01:36:20 10° NNW 01:41:15 74° WSW 01:42:25 51° S
Cosmos 2154 Rocket 4.3 01:37:16 10° NNW 01:43:29 57° W 01:45:54 36° SSW
Cosmos 2228 Rocket 4.0 01:41:41 10° NNW 01:45:43 33° W 01:46:22 32° WSW
COSMOS 2487 2.3 01:43:18 10° NNW 01:46:50 87° NE 01:46:50 87° NE
BREEZE-M DEB (TANK) 3.3 01:44:47 10° WNW 01:46:59 31° N 01:49:07 10° ENE
Cosmos 2181 Rocket 4.0 01:45:37 38° S 01:48:17 79° E 01:54:34 10° N
Cosmos 2341 Rocket 4.0 01:46:11 10° NNW 01:52:31 72° W 01:55:09 37° S
CZ-4B R/B 3.2 01:52:07 20° E 01:52:56 22° ENE 01:55:26 10° NNE
deb Chang Zheng 4 4.3 01:48:44 10° N 01:52:57 46° WNW 01:54:10 36° WSW
RESURS DK-1 3.9 01:52:10 22° W 01:53:53 29° NW 01:57:35 10° N
Cosmos 405 Rocket 4.5 01:51:15 10° NW 01:53:47 19° W 01:53:47 19° W
Cosmos 676 Rocket 4.0 01:54:08 43° SW 01:55:51 77° WNW 02:01:03 10° NNE
Mayak 1.1 01:53:57 10° NNW 01:56:30 16° WNW 01:58:24 12° W
Cosmos 1900 4.2 01:55:13 49° SSW 01:56:31 79° ESE 02:01:27 10° NE
Cosmos 1954 Rocket 3.9 01:55:16 45° SSW 01:56:55 86° WNW 02:02:07 10° NNE
Cosmos 1140 Rocket 3.4 01:55:37 45° SSW 01:57:15 84° WNW 02:02:24 10° NNE
MOS 1 Rocket 3.3 01:56:11 10° N 02:01:16 83° WNW 02:02:44 46° SSW
CZ-4C R/B 3.2 02:02:50 59° SE 02:03:21 71° ENE 02:07:02 10° N
Lacrosse 5 4.4 01:59:30 10° NW 02:03:24 22° N 02:07:19 10° NE
Cosmos 407 Rocket 4.4 02:02:56 26° WSW 02:05:14 40° WNW 02:10:08 10° N
Cosmos 2218 Rocket 3.9 02:02:30 10° N 02:08:42 86° E 02:11:45 32° S
Cosmos 614 Rocket 4.2 02:08:50 37° SW 02:10:46 62° WNW 02:15:53 10° NNE
Lacrosse 4 Rocket 3.9 02:11:36 10° ESE 02:12:58 12° ESE 02:14:28 10° E
Cosmos 2369 Rocket 2.2 02:10:58 39° S 02:13:09 76° ESE 02:18:49 10° NNE
Resurs 1-4 Rocket 3.9 02:09:59 10° NE 02:14:07 22° E 02:17:19 14° SE
SL-8 Rocket 4.0 02:09:51 10° NNW 02:16:06 72° W 02:18:59 34° S
Cosmos 864 Rocket 4.5 02:12:49 10° N 02:19:09 89° E 02:22:26 30° S
Cosmos 1570 Rocket 4.2 02:16:38 10° NNW 02:21:56 71° ENE 02:25:14 23° SSE
BREEZE M DEB (TANK) 3.3 02:12:38 10° WSW 02:22:49 67° NNW 02:26:00 10° ENE
USA 234 3.7 02:18:27 10° NE 02:24:53 61° NNW 02:31:12 10° WSW
Cosmos 1805 Rocket 4.1 02:24:02 38° WSW 02:25:10 47° WNW 02:29:27 10° N
Cosmos 2082 Rocket 4.2 02:23:45 10° WNW 02:25:45 12° W 02:26:25 12° WSW
CENTAUR R/B 4.0 02:19:24 10° NW 02:26:08 30° WSW 02:28:42 25° SW
Timation 2 Rocket 4.2 02:21:33 10° NW 02:28:06 60° WSW 02:31:37 29° S
deb Kosmos-1763 4.0 02:27:56 10° NNW 02:31:42 74° WSW 02:32:22 56° S
Cosmos 1862 Rocket 3.9 02:31:15 10° N 02:35:44 65° E 02:37:59 28° SSE
CRYOSAT 2 4.3 02:33:35 34° S 02:35:44 88° E 02:40:39 10° N
SL-16 R/B 3.1 02:30:09 11° SE 02:36:00 55° ENE 02:42:00 10° N
Sich 1 3.4 02:35:11 39° SW 02:36:27 53° WNW 02:40:46 10° N
ATLAS 5 CENTAUR R/B 4.1 02:34:43 10° WNW 02:38:17 21° NNW 02:42:09 10° NNE
Cosmos 1850 Rocket 3.9 02:36:18 36° SSW 02:38:29 83° WNW 02:43:46 10° NNE
Cosmos 2366 rocket 4.1 02:35:43 10° NNW 02:41:45 60° W 02:44:46 30° SSW
Cosmos 1606 3.0 02:39:41 10° N 02:43:28 63° E 02:45:05 32° SSE
UNK 4.5 02:41:23 16° SE 02:44:57 52° ENE 02:49:30 10° N
BREEZE-M DEB (TANK) 3.8 02:41:30 10° W 02:45:07 49° N 02:49:14 10° ENE
Cosmos 1933 4.2 02:43:04 10° NNW 02:46:41 32° W 02:47:17 31° WSW
Cosmos 2263 4.1 02:44:23 32° SSW 02:47:06 83° WNW 02:52:45 10° NNE
Cosmos 304 Rocket 4.1 02:42:31 10° NNW 02:47:07 48° WSW 02:48:38 35° SSW
Cosmos 1707 Rocket 4.4 02:43:12 10° NNW 02:47:11 34° W 02:48:10 30° WSW
Cosmos 1825 2.1 02:50:03 42° S 02:51:13 81° E 02:55:00 10° N
Meteor 2-15 Rocket 4.4 02:49:08 27° S 02:52:39 86° E 02:58:45 10° N
CBERS-1 4.4 02:47:54 10° NNE 02:52:59 58° ESE 02:55:56 24° S
Nadezhda 3 Rocket 4.2 02:49:37 24° S 02:53:41 74° E 03:00:01 10° NNE
Cosmos 1633 Rocket 3.6 02:52:26 33° SW 02:53:59 47° WNW 02:58:17 10° N
Cosmos 1833 4.1 02:48:50 10° NNW 02:54:27 89° WSW 02:59:20 14° SSE
ARIANE 5 R/B 4.0 02:50:18 10° NE 02:54:34 28° E 02:58:24 12° SSE
Cosmos 1656 Rocket 4.1 02:53:56 25° S 02:57:04 55° ESE 03:02:34 10° NNE
Meteor 1-26 Rocket 4.5 02:52:07 10° NNW 02:57:42 53° W 03:00:27 28° SSW
Cosmos 1470 Rocket 3.5 02:56:58 34° SSW 02:58:54 80° W 03:03:24 10° N
SL-8 R/B 4.2 02:54:26 10° WNW 02:59:14 62° N 03:04:01 10° E
Cosmos 1689 Rocket 2.4 03:00:39 46° WSW 03:00:47 46° W 03:03:45 10° NNW
Meteor 2-15 4.5 02:58:00 27° SSW 03:01:22 69° W 03:07:26 10° N
Cosmos 1763 Rocket 3.5 03:00:11 10° NNW 03:05:17 78° ENE 03:10:10 11° SSE
NPP 3.7 03:00:04 10° NNE 03:05:30 82° ESE 03:08:45 25° S
Cosmos 1943 Rocket 2.5 03:04:49 24° SW 03:08:00 55° WNW 03:13:30 10° NNE
H-2A R/B 2.9 03:04:07 10° NNE 03:08:06 53° E 03:10:11 25° SSE
Meteor 1-10 Rocket 4.4 03:02:32 10° N 03:08:07 74° ENE 03:13:12 13° SSE
Cosmos 1782 2.7 03:05:22 10° N 03:09:22 84° W 03:11:23 28° S
Cosmos 1408 3.0 03:08:29 34° SW 03:09:39 49° W 03:13:17 10° N
Cosmos 1934 Rocket 4.4 03:06:53 10° N 03:13:13 64° ENE 03:19:26 10° SSE
Cosmos 1867 4.3 03:10:13 21° S 03:13:25 43° ESE 03:18:33 10° NE
Cosmos 405 3.6 03:12:40 32° WSW 03:13:43 41° WNW 03:17:07 10° N
Cosmos 1814 Rocket 4.0 03:12:46 10° NNW 03:18:07 90° WSW 03:23:22 10° SSE
CZ-2D R/B 2.2 03:13:15 10° NNE 03:18:34 78° ESE 03:22:15 21° S
SL-08 R/B 3.2 03:16:05 19° S 03:19:27 76° WSW 03:24:11 10° NNW
Cosmos 2219 4.4 03:15:31 10° NNW 03:20:58 45° ENE 03:26:20 10° SE
Cosmos 292 Rocket 3.8 03:16:28 10° NNW 03:21:18 81° ENE 03:26:08 10° SSE
Cosmos 1933 Rocket 3.8 03:19:15 28° SW 03:21:21 56° WNW 03:25:40 10° N
CZ-4B R/B 3.0 03:25:33 18° W 03:25:33 18° W 03:27:40 10° NW
Cosmos 1818 3.5 03:20:03 10° NW 03:25:31 71° WSW 03:30:57 10° SSE
ATLAS 5 CENTAUR R/B 4.2 03:23:07 18° S 03:27:21 55° ESE 03:47:17 10° NE
Cosmos 540 Rocket 4.3 03:22:38 10° NNW 03:27:40 52° ENE 03:32:38 10° SE
ADEOS II 4.0 03:23:47 10° NE 03:28:01 24° E 03:32:12 10° SE
GP-B 3.7 03:25:10 10° NNW 03:29:23 43° W 03:31:41 23° SW
IRS-P3 4.2 03:25:34 10° N 03:30:53 69° WNW 03:34:32 21° SSW
Cosmos 841 Rocket 3.4 03:28:30 10° NNW 03:33:45 86° WSW 03:38:56 10° SSE
MOZ.5/SAFIR/RUBIN 5/SL-8 3.7 03:33:21 14° S 03:37:27 75° WSW 03:42:08 10° NNW
IRS-1D 3.5 03:33:52 10° NNE 03:39:04 86° WNW 03:42:55 18° SSW
COSMOS 2455 2.9 03:35:27 10° NNW 03:41:31 84° ENE 03:47:32 10° SSE
Cosmos 2221 Rocket 3.9 03:37:57 10° N 03:42:22 67° E 03:46:48 10° SSE
Cosmos 1821 Rocket 4.2 03:36:29 10° NNW 03:42:38 58° W 03:48:04 14° SSW
BREEZE-M DEB (TANK) 2.6 03:38:13 12° WSW 03:43:46 88° NNW 03:46:03 10° ENE
Cosmos 1862 3.2 03:41:35 20° S 03:44:17 83° W 03:48:16 10° N
Lacrosse 5 4.2 03:43:28 10° NW 03:47:47 27° NNE 03:52:06 10° ENE
Meteor 1-4 Rocket 3.3 03:47:45 12° S 03:50:56 50° E 03:54:31 10° NNE
Cosmos 2297 Rocket 4.1 03:45:53 10° N 03:50:58 33° NE 03:56:01 10° ESE
Lacrosse 4 Rocket 1.5 03:47:55 20° SW 03:50:58 80° WNW 03:55:27 10° NNE
Cosmos 1184 Rocket 2.8 03:49:31 10° N 03:52:48 80° ENE 03:56:03 10° SSE
Resurs 1-4 Rocket 2.5 03:49:04 10° N 03:54:14 52° WNW 03:58:24 16° SW
AQUA 4.5 03:50:45 10° N 03:55:14 41° WNW 03:58:40 16° SW
Fregat R/B Cluster 11 4.2 03:54:02 18° WSW 03:55:56 50° NW 04:00:13 10° NNE
Cosmos 1869 Rocket 3.5 03:53:12 16° SSW 03:56:39 75° W 04:01:02 10° N
Cosmos 2369 Rocket 4.0 03:53:34 10° W 03:57:49 21° NW 04:02:04 10° N
Cosmos 2227 Rocket 3.7 03:53:45 10° NNW 03:59:06 40° NE 04:04:26 10° SE
CZ-2D R/B 3.8 03:56:46 10° NNE 04:01:03 64° E 04:05:11 10° S
USA 229 DEB 4.0 03:54:53 10° NW 04:02:07 84° NE 04:09:32 10° SE
USA 229 4.0 03:55:00 10° NW 04:02:13 84° NE 04:09:38 10° SE
Cosmos 1486 Rocket 4.1 03:58:08 15° SSW 04:02:33 79° WNW 04:07:55 10° NNE
UNKNOWN OBJECT B 3.0 04:05:40 10° NNE 04:09:39 77° ESE 04:13:40 10° S
ATLAS CENTAUR R/B 3.4 04:07:19 10° SSE 04:09:58 18° ESE 04:12:44 10° ENE
SAR-Lupe-2 3.5 04:08:57 10° S 04:12:30 71° WSW 04:16:06 10° NNW
SL-16 R/B 3.6 04:15:15 12° SSW 04:19:56 26° W 04:25:03 10° NW
SeaSat 1 4.3 04:16:44 10° ESE 04:21:13 36° NE 04:25:43 10° NNW
Cosmos 389 Rocket 3.3 04:19:20 10° S 04:22:51 52° E 04:26:25 10° NNE
PSLV R/B 3.7 04:22:50 10° WSW 04:25:34 33° S 04:28:16 10° ESE
Cosmos 44 Rocket 4.3 04:23:24 10° S 04:27:55 41° ESE 04:32:36 10° NE
Cosmos 1503 Rocket 4.0 04:23:16 10° SSW 04:28:27 87° WNW 04:33:39 10° NNE
Okean 1-7 4.1 04:27:36 10° NNW 04:31:20 27° W 04:35:03 10° SSW
Cosmos 968 Rocket 4.1 04:28:10 10° S 04:33:19 57° ESE 04:38:30 10° NNE
ARIANE 5 R/B 3.2 04:29:11 10° N 04:33:47 38° WNW 04:38:21 10° SW
Helios 1A Rocket 3.0 04:30:42 10° N 04:34:42 63° WNW 04:38:41 10° SSW
Cosmos 1605 Rocket 4.4 04:32:53 10° NNW 04:38:35 43° W 04:44:18 10° SSW
SL-8 R/B 3.7 04:37:05 10° WNW 04:41:52 63° SSW 04:46:37 10° SE
Cosmos 1437 Rocket 4.1 04:38:40 10° SW 04:42:13 28° WNW 04:45:49 10° NNW
H-2A R/B 4.5 04:40:52 10° NNW 04:43:09 15° WNW 04:45:24 10° W
Cosmos 1633 2.6 04:40:09 10° SSW 04:43:44 69° W 04:47:21 10° N
BREEZE-M DEB (TANK) 2.6 04:39:22 10° W 04:44:21 88° SSW 04:47:05 10° ESE
Cosmos 44 3.3 04:41:43 10° SW 04:46:23 88° WNW 04:51:26 10° NE
